Wind_Speed
3 3 3 2 2 2 3 5 6 6 6 7 6 6 6 6 6 7 8 7 7 7 7 7 6 6 6 6 8 8 8 8 8 8 7 8 8 8 7 8 8 8 8 8 8 8 8 9 9
4 3 4 3 3 4 5 6 7 7 6 7 7 7 7 7 7 8 9 9 8 7 8 8 7 7 8 8 8 8 9 9 8 8 9 9 9 9 8 8 8 8 8 9 9 9 9 9 10
4 4 4 4 4 5 6 7 7 7 7 8 8 8 8 8 8 9 9 9 9 8 8 9 8 9 9 9 9 9 10 10 10 9 10 10 10 9 9 10 10 9 10 10 10 10 11 11 11
4 4 4 4 6 6 7 8 8 8 8 9 9 9 9 8 9 9 9 10 10 10 10 10 9 9 10 10 10 10 10 11 11 11 11 10 10 10 11 11 10 10 11 11 12 12 12 12 13
4 4 3 4 6 7 8 9 9 9 10 10 11 10 9 9 9 9 9 10 10 10 10 10 10 10 11 10 10 10 10 11 11 11 11 11 12 12 12 12 11 11 12 12 12 13 13 14 14
4 3 3 5 6 8 9 9 10 10 10 11 11 11 10 9 10 10 9 10 10 9 10 10 9 9 10 10 10 10 10 10 11 11 11 11 12 12 12 12 12 12 12 12 13 13 14 14 15
4 3 3 5 7 8 9 10 11 11 11 11 12 12 11 10 10 10 10 10 10 9 10 10 11 10 11 11 11 11 11 11 11 12 12 12 12 13 13 13 13 13 13 14 14 15 15 15 16
3 3 4 6 6 8 10 11 12 12 12 12 13 12 12 11 11 11 11 10 10 10 11 12 13 13 13 13 13 13 13 13 13 12 13 13 13 14 14 14 15 15 15 15 15 16 16 17 17
3 2 4 6 6 8 10 11 13 13 13 13 13 13 13 13 12 11 11 11 11 11 12 14 14 14 14 14 15 15 15 14 14 14 14 14 14 15 14 15 15 15 15 16 16 16 17 17 18
3 3 5 6 7 8 10 12 13 13 13 13 13 13 14 14 13 12 13 13 13 13 14 15 15 15 15 16 16 17 16 16 16 16 16 16 16 16 15 15 14 15 16 17 18 18 18 18 19
3 4 5 6 8 9 11 12 13 14 13 13 14 14 14 14 14 13 14 14 14 14 14 15 16 16 17 18 18 18 18 18 18 18 18 18 18 18 17 16 15 16 17 18 19 20 20 19 19
3 4 6 7 9 11 12 14 14 15 15 15 14 14 15 15 15 15 14 15 15 15 15 17 17 17 18 19 20 19 19 19 19 19 19 19 18 18 18 17 16 16 17 18 19 20 20 18 18
4 5 7 8 10 12 13 13 14 16 16 16 16 16 16 16 15 16 16 16 17 17 17 18 19 19 19 20 21 21 21 21 20 20 20 20 20 19 18 18 18 18 18 19 19 19 19 18 18
5 6 8 9 11 13 13 14 15 16 16 17 17 17 17 17 16 16 17 17 17 18 18 19 21 21 21 22 22 21 21 22 22 21 22 21 21 20 19 19 19 19 19 19 19 20 19 19 19
6 7 9 11 12 14 15 14 15 17 17 18 18 18 17 18 17 18 18 18 18 19 20 20 21 21 22 22 22 21 22 22 22 22 22 21 21 21 20 19 18 19 19 19 20 20 20 20 20
8 9 10 12 13 14 15 15 16 17 17 18 18 18 18 18 18 18 19 19 19 20 21 21 21 22 23 24 24 24 23 22 23 23 22 21 21 20 19 19 19 20 20 20 21 21 21 21 21
9 11 12 14 15 16 16 16 17 17 18 19 19 19 19 19 19 19 20 20 21 22 22 22 23 23 25 25 24 24 23 23 23 22 21 21 21 21 20 20 20 20 21 21 21 21 22 23 23
11 13 14 16 17 17 17 17 18 18 18 19 19 19 19 19 19 20 21 22 22 22 23 23 24 25 25 24 23 24 24 24 24 23 21 20 20 20 20 20 21 22 22 22 22 22 23 23 23
13 15 16 17 18 18 18 18 20 20 19 20 21 20 20 19 20 21 21 21 22 23 23 24 25 25 24 24 24 24 23 24 24 22 20 20 21 21 21 21 21 22 22 23 23 23 23 23 23
15 16 17 17 18 19 19 19 20 21 20 21 20 21 21 21 21 21 22 22 22 22 24 25 25 26 25 25 25 25 25 24 23 22 20 19 20 21 22 21 21 22 22 23 23 24 23 23 24
16 16 17 18 19 20 21 20 21 21 21 21 21 21 22 21 21 22 22 21 22 24 26 26 25 25 25 24 23 22 23 22 22 20 20 21 21 22 22 22 24 24 24 24 23 23 23 23 24
18 18 19 20 20 20 21 20 22 22 21 21 22 22 21 21 22 22 22 22 23 24 25 25 25 25 25 24 23 22 21 21 21 20 20 20 21 22 23 23 23 24 24 23 23 23 23 24 24
18 19 20 20 21 21 21 20 20 20 21 21 21 21 21 21 21 21 21 22 22 24 24 24 24 24 24 23 22 21 20 20 20 20 20 20 21 22 23 22 22 23 23 22 22 22 23 23 24
19 20 20 21 21 20 20 18 19 18 20 20 20 20 20 20 20 20 20 21 21 21 22 22 22 22 22 21 20 20 20 21 20 20 20 20 20 21 21 21 22 22 22 21 22 23 23 24 24
18 19 19 18 17 17 19 19 19 19 20 20 20 20 19 19 19 18 19 18 17 17 18 19 19 20 19 19 19 18 19 19 19 19 19 20 20 19 19 20 21 21 21 22 22 22 22 23 23
18 18 18 18 17 17 19 18 20 21 20 19 20 20 19 18 16 16 16 15 15 15 16 17 17 18 17 18 18 19 19 19 19 19 20 20 20 20 20 20 20 21 21 22 22 22 22 22 23
18 17 17 18 18 17 17 18 20 20 19 18 19 19 18 16 15 15 16 16 16 16 17 16 16 16 16 16 17 18 18 19 19 19 20 19 20 20 20 20 21 21 21 22 23 22 22 22 23
18 17 17 16 16 16 15 15 16 18 17 17 17 17 15 15 14 14 16 16 16 16 16 16 15 15 14 14 15 16 16 16 17 19 19 19 20 21 21 21 21 21 21 22 22 22 22 23 23
16 16 16 15 14 14 14 15 16 17 17 17 17 16 14 15 15 15 15 15 15 15 15 14 14 14 14 13 14 15 15 15 16 17 18 19 20 20 21 20 20 22 22 22 22 23 23 23 23
15 14 14 13 13 14 14 15 16 16 16 16 16 16 14 14 14 14 15 15 15 15 14 14 13 13 13 13 13 14 14 15 15 16 18 18 18 19 19 18 19 20 21 22 23 23 23 23 24
Wind_Direction
210 202 211 225 252 266 265 271 268 270 272 274 275 277 279 290 291 292 295 304 307 309 312 311 302 297 299 292 282 278 279 282 283 283 283 282 279 276 275 276 282 283 282 282 281 283 283 279 276
210 213 222 229 236 259 271 278 279 277 281 283 280 280 281 290 296 297 296 304 308 304 302 302 300 299 302 296 291 284 285 286 288 287 285 285 281 278 279 278 282 283 281 281 279 279 280 280 278
211 222 225 232 231 243 263 276 279 276 281 283 281 281 282 285 291 296 299 300 303 303 299 298 296 296 298 294 289 287 286 286 289 289 287 285 280 280 283 281 279 281 283 282 282 279 278 279 282
218 214 223 230 247 258 268 276 284 282 282 285 289 289 288 288 293 296 300 300 298 301 303 302 295 294 295 292 288 285 285 287 289 290 289 285 280 284 286 281 279 280 282 281 282 280 281 280 282
224 219 218 236 254 263 272 277 279 284 284 286 287 290 292 293 295 296 298 300 298 299 301 300 301 299 290 286 285 292 290 290 292 292 291 287 286 286 287 282 280 282 284 283 285 283 283 283 284
225 225 223 249 261 270 276 277 275 281 282 284 284 286 288 286 290 295 298 302 297 298 297 295 297 299 297 295 294 293 297 295 294 293 292 289 286 285 286 285 281 284 287 288 287 288 287 283 284
223 226 237 255 270 277 278 277 275 279 283 282 283 285 284 282 281 289 293 297 297 296 296 294 293 295 296 296 297 297 298 298 294 289 289 287 287 288 287 286 285 285 285 289 291 290 286 283 283
228 232 251 262 267 277 280 281 282 285 286 283 282 281 280 278 275 280 286 292 294 293 294 294 292 294 294 293 292 295 294 293 291 288 287 284 285 286 285 284 285 286 288 288 291 292 288 286 284
230 232 260 265 272 277 281 287 290 288 285 281 280 278 278 276 276 280 284 289 292 291 294 294 290 293 294 291 290 292 293 289 288 287 286 284 284 285 282 280 281 283 288 289 290 291 290 288 287
235 249 262 272 277 280 284 287 288 289 286 285 285 280 280 279 279 285 286 288 288 289 290 290 287 289 290 289 290 290 290 289 286 285 285 284 282 282 282 283 282 282 284 288 290 290 288 289 288
248 255 269 274 279 282 285 286 285 287 286 287 282 278 278 279 279 280 283 284 282 281 282 282 284 283 286 289 289 288 289 288 286 285 283 281 280 280 280 281 284 286 286 288 288 288 287 288 287
260 266 271 273 282 286 288 289 286 289 287 285 282 283 286 283 280 278 280 279 276 277 278 280 283 283 284 286 286 285 286 284 282 282 282 279 280 280 280 280 284 286 288 289 289 291 286 286 285
280 282 279 279 285 292 294 291 288 288 286 286 287 287 287 283 284 282 280 280 280 282 283 282 282 282 282 282 283 285 283 281 278 278 278 278 277 279 278 281 283 284 285 285 288 291 286 286 286
296 291 286 288 293 297 296 295 293 291 290 289 290 289 286 284 282 281 281 280 281 285 286 284 283 282 283 285 283 284 284 283 280 276 274 274 275 276 275 279 282 283 282 284 287 288 284 284 286
301 301 301 297 300 300 299 297 297 293 291 289 290 289 286 283 282 283 283 283 283 284 284 286 283 282 283 285 283 281 283 281 283 278 276 273 273 274 274 277 280 281 284 283 285 284 283 283 284
304 307 303 299 300 300 301 299 298 296 294 292 292 289 287 283 281 281 283 282 283 284 284 285 285 285 285 286 284 282 283 282 283 283 278 275 275 274 275 278 280 282 283 284 284 283 284 284 284
306 304 302 302 304 305 304 302 300 302 300 300 298 293 289 286 284 281 282 283 284 284 282 284 286 286 286 284 282 282 282 282 281 280 277 274 274 275 277 278 280 281 282 282 284 284 286 285 283
303 306 306 303 306 307 306 305 305 303 301 299 297 295 292 288 285 283 282 281 281 281 281 283 286 287 286 283 283 283 281 281 282 280 276 275 274 275 274 277 279 280 281 282 284 284 284 286 284
303 305 305 303 304 307 308 305 305 305 302 298 296 297 294 288 284 284 281 281 282 281 281 283 285 286 285 283 283 281 281 281 282 281 278 278 277 273 273 276 281 282 282 282 282 283 283 284 284
304 306 306 306 305 306 307 305 304 304 304 301 296 296 295 290 285 284 283 283 282 283 283 283 284 284 284 282 281 279 280 282 283 285 281 278 277 275 275 277 280 281 282 280 280 280 281 284 286
301 302 303 304 306 307 308 309 305 304 304 304 299 296 294 294 288 286 283 281 279 280 281 282 282 281 281 280 279 277 279 282 283 283 281 280 278 277 279 279 281 281 283 281 279 281 282 284 286
300 302 303 304 307 306 308 307 304 305 304 303 302 298 295 294 291 286 282 280 279 281 283 282 282 280 280 278 275 275 278 281 281 281 279 277 279 279 281 281 282 283 283 283 280 281 282 283 285
299 303 304 307 307 307 307 306 304 305 303 303 304 301 298 296 293 288 285 284 282 282 284 284 282 280 279 278 277 276 277 280 281 281 281 279 280 281 281 281 282 282 282 285 284 283 283 285 286
304 305 307 310 313 310 308 306 306 305 306 306 306 303 301 300 297 293 290 287 285 286 286 284 282 280 279 279 278 277 277 278 279 280 281 282 281 280 280 281 282 283 285 287 286 285 286 287 288
309 310 314 314 311 307 308 308 306 308 310 311 310 307 305 304 300 297 294 289 289 288 287 285 283 284 281 278 277 279 278 278 278 281 281 282 283 282 282 282 283 284 286 288 288 286 288 288 289
309 309 310 308 307 306 310 309 307 310 313 313 312 311 312 311 307 305 300 298 295 293 290 289 287 287 283 280 279 280 280 279 278 281 282 282 282 281 282 283 285 286 286 287 288 289 288 288 288
310 311 311 310 311 310 310 310 311 312 314 313 314 314 313 314 313 310 305 304 305 302 297 294 289 287 285 284 282 282 282 282 283 283 281 281 282 281 283 285 287 286 287 287 288 290 290 289 288
314 316 317 318 316 313 315 318 315 316 315 316 317 316 315 315 314 311 310 309 307 305 302 298 294 291 289 289 287 285 285 286 288 286 283 282 283 282 284 287 288 288 289 290 291 292 291 289 289
320 320 321 319 318 318 320 319 317 318 318 319 319 317 318 317 313 313 314 312 311 310 307 303 302 297 293 293 290 289 288 291 291 289 286 285 284 284 287 289 291 291 292 293 291 293 294 292 291
327 329 329 327 325 326 324 324 320 319 318 319 318 316 318 320 314 313 315 315 313 313 309 306 304 301 298 295 290 292 293 294 294 291 289 288 287 288 290 294 296 294 294 295 295 294 294 294 294
Height
5887 5888 5889 5890 5891 5893 5892 5892 5892 5891 5891 5890 5890 5889 5889 5889 5889 5891 5888 5885 5885 5884 5883 5882 5882 5881 5880 5880 5879 5879 5878 5877 5876 5875 5874 5873 5873 5872 5872 5871 5871 5871 5870 5870 5870 5870 5870 5870 5870
5886 5886 5888 5889 5890 5892 5891 5890 5890 5890 5889 5889 5888 5887 5887 5887 5886 5886 5884 5883 5883 5882 5881 5880 5880 5879 5878 5878 5877 5877 5876 5875 5874 5873 5872 5871 5870 5870 5869 5869 5868 5868 5868 5868 5867 5867 5867 5867 5867
5885 5885 5887 5888 5889 5890 5889 5889 5888 5887 5887 5886 5886 5885 5885 5885 5884 5883 5882 5881 5881 5880 5879 5878 5877 5877 5876 5875 5875 5874 5874 5873 5872 5871 5870 5869 5867 5867 5866 5866 5865 5865 5865 5865 5864 5864 5864 5864 5864
5883 5885 5886 5887 5887 5887 5887 5887 5886 5885 5885 5884 5883 5883 5883 5883 5882 5881 5880 5879 5878 5877 5877 5876 5875 5875 5874 5873 5872 5872 5871 5870 5869 5868 5867 5866 5864 5863 5863 5863 5862 5862 5862 5861 5861 5861 5861 5861 5861
5882 5884 5885 5886 5885 5884 5884 5884 5884 5883 5883 5882 5881 5881 5880 5880 5879 5878 5878 5877 5876 5875 5874 5874 5873 5872 5872 5870 5870 5869 5869 5868 5867 5866 5864 5863 5861 5861 5860 5859 5859 5858 5858 5858 5858 5858 5858 5858 5857
5881 5883 5884 5884 5883 5882 5882 5882 5881 5881 5880 5880 5879 5878 5878 5878 5877 5876 5875 5874 5874 5873 5872 5871 5870 5870 5869 5869 5868 5866 5866 5865 5864 5863 5861 5860 5859 5858 5857 5857 5856 5855 5855 5855 5855 5855 5854 5854 5854
5880 5881 5882 5882 5881 5881 5880 5879 5878 5878 5877 5877 5876 5876 5875 5875 5874 5874 5873 5872 5871 5871 5870 5869 5868 5867 5867 5866 5865 5864 5863 5862 5861 5860 5859 5857 5856 5855 5855 5854 5853 5852 5852 5852 5851 5851 5850 5850 5850
5878 5880 5880 5880 5879 5879 5878 5876 5876 5875 5874 5874 5873 5873 5873 5872 5871 5871 5870 5869 5869 5868 5867 5866 5866 5864 5864 5863 5862 5862 5861 5859 5858 5857 5856 5854 5853 5852 5851 5851 5850 5849 5849 5848 5848 5847 5846 5846 5845
5877 5879 5879 5878 5877 5876 5875 5874 5874 5872 5871 5871 5870 5870 5870 5869 5868 5868 5867 5867 5866 5865 5865 5864 5863 5862 5861 5860 5859 5858 5857 5856 5855 5854 5853 5851 5850 5849 5848 5847 5847 5846 5846 5845 5844 5843 5842 5841 5841
5876 5877 5877 5876 5875 5874 5873 5872 5871 5869 5868 5867 5867 5866 5866 5865 5865 5865 5865 5864 5863 5862 5862 5861 5860 5859 5858 5857 5855 5854 5853 5852 5851 5850 5849 5848 5847 5846 5845 5844 5843 5842 5841 5841 5840 5839 5838 5837 5837
5874 5875 5875 5874 5872 5871 5870 5869 5867 5866 5866 5865 5863 5863 5862 5862 5861 5861 5861 5861 5860 5859 5858 5857 5856 5856 5855 5853 5852 5850 5849 5848 5847 5846 5845 5844 5843 5842 5841 5840 5839 5838 5838 5837 5836 5835 5834 5833 5832
5873 5873 5872 5872 5870 5869 5867 5866 5865 5863 5863 5861 5860 5859 5859 5858 5858 5858 5858 5857 5857 5856 5855 5854 5853 5852 5851 5849 5848 5846 5845 5844 5843 5842 5841 5840 5839 5838 5837 5836 5835 5834 5834 5833 5832 5831 5830 5829 5828
5872 5871 5870 5870 5868 5867 5865 5863 5862 5860 5859 5858 5857 5856 5856 5855 5854 5854 5854 5854 5853 5852 5851 5850 5849 5848 5846 5845 5844 5842 5840 5838 5837 5836 5836 5835 5834 5833 5833 5832 5831 5830 5829 5829 5828 5826 5825 5824 5823
5870 5870 5869 5868 5866 5865 5863 5861 5860 5858 5856 5855 5854 5854 5853 5852 5851 5851 5851 5850 5849 5848 5847 5846 5844 5843 5842 5841 5839 5837 5836 5834 5833 5831 5830 5830 5829 5829 5828 5828 5827 5826 5825 5824 5823 5822 5821 5820 5819
5869 5869 5868 5866 5864 5862 5861 5859 5857 5855 5853 5852 5851 5850 5849 5848 5848 5847 5847 5846 5845 5844 5843 5841 5840 5838 5837 5836 5833 5831 5831 5829 5828 5826 5825 5824 5823 5823 5823 5823 5822 5822 5821 5820 5819 5818 5816 5815 5814
5868 5868 5867 5864 5862 5860 5860 5857 5855 5852 5851 5849 5848 5846 5845 5844 5843 5843 5841 5840 5840 5839 5838 5837 5835 5834 5833 5831 5829 5827 5825 5824 5823 5822 5821 5820 5820 5820 5819 5818 5818 5817 5816 5815 5814 5813 5812 5811 5809
5867 5866 5865 5862 5860 5858 5856 5854 5851 5849 5847 5846 5844 5842 5841 5840 5839 5837 5836 5835 5835 5834 5833 5832 5831 5829 5827 5825 5823 5822 5820 5819 5818 5817 5816 5815 5815 5815 5814 5814 5813 5812 5811 5810 5809 5808 5807 5806 5804
5866 5864 5862 5859 5857 5855 5853 5850 5848 5846 5844 5842 5840 5838 5836 5835 5834 5833 5832 5831 5830 5829 5828 5827 5825 5824 5822 5820 5818 5817 5816 5814 5812 5812 5810 5810 5810 5810 5809 5808 5808 5807 5806 5805 5804 5803 5801 5800 5798
5863 5861 5859 5856 5853 5851 5849 5847 5844 5842 5840 5838 5836 5834 5832 5830 5829 5828 5827 5826 5824 5823 5823 5822 5820 5818 5816 5815 5813 5811 5810 5809 5807 5806 5805 5805 5805 5805 5804 5803 5802 5801 5800 5799 5798 5797 5795 5794 5792
5859 5858 5855 5853 5850 5848 5845 5843 5841 5838 5836 5834 5831 5829 5827 5825 5824 5822 5821 5820 5819 5818 5817 5816 5814 5812 5811 5809 5807 5806 5804 5803 5802 5801 5800 5800 5800 5800 5799 5798 5797 5796 5794 5794 5792 5791 5789 5788 5786
5856 5854 5852 5849 5847 5844 5842 5840 5837 5834 5832 5829 5826 5824 5822 5819 5818 5817 5816 5814 5813 5812 5811 5809 5808 5806 5805 5803 5802 5800 5799 5798 5797 5796 5795 5795 5795 5794 5793 5792 5791 5790 5788 5787 5786 5784 5783 5782 5780
5852 5850 5848 5845 5843 5842 5839 5837 5833 5830 5828 5825 5822 5819 5816 5814 5812 5811 5809 5808 5807 5806 5804 5802 5801 5800 5799 5797 5796 5794 5794 5793 5792 5791 5790 5790 5789 5789 5788 5787 5785 5784 5783 5781 5780 5778 5777 5775 5774
5848 5846 5844 5841 5839 5837 5835 5833 5830 5827 5823 5821 5818 5815 5812 5809 5807 5805 5804 5802 5801 5799 5798 5796 5795 5794 5792 5791 5790 5789 5788 5788 5787 5786 5785 5784 5784 5783 5782 5781 5780 5778 5777 5776 5774 5772 5771 5769 5767
5843 5842 5840 5837 5835 5833 5830 5829 5826 5823 5819 5816 5813 5810 5807 5804 5802 5800 5798 5797 5795 5793 5791 5790 5789 5788 5786 5785 5784 5784 5783 5782 5781 5781 5780 5779 5778 5777 5776 5775 5774 5773 5771 5769 5768 5766 5765 5763 5761
5840 5838 5837 5835 5833 5831 5826 5823 5822 5817 5814 5811 5808 5805 5802 5799 5797 5795 5793 5791 5788 5787 5785 5784 5783 5782 5781 5780 5779 5779 5778 5777 5776 5776 5775 5774 5773 5772 5771 5770 5768 5767 5766 5764 5762 5760 5758 5757 5755
5835 5834 5833 5831 5828 5826 5822 5819 5816 5812 5809 5806 5803 5800 5797 5795 5792 5790 5788 5786 5784 5782 5780 5779 5778 5777 5776 5775 5774 5774 5773 5772 5771 5770 5769 5768 5767 5766 5765 5764 5763 5761 5760 5758 5756 5754 5752 5751 5749
5831 5829 5827 5825 5822 5820 5818 5814 5811 5807 5805 5802 5799 5796 5793 5791 5788 5786 5784 5782 5780 5778 5776 5774 5773 5772 5771 5770 5769 5769 5767 5767 5766 5765 5763 5762 5761 5760 5759 5758 5757 5755 5753 5752 5750 5748 5746 5744 5742
5827 5824 5822 5820 5817 5815 5814 5811 5807 5803 5801 5798 5795 5792 5789 5787 5785 5782 5780 5778 5776 5774 5772 5770 5769 5767 5766 5765 5764 5764 5763 5761 5760 5759 5758 5757 5756 5754 5753 5752 5751 5749 5747 5746 5744 5741 5739 5737 5735
5823 5821 5818 5816 5814 5812 5810 5810 5803 5800 5797 5794 5791 5788 5786 5783 5781 5779 5776 5774 5772 5770 5768 5767 5765 5764 5762 5761 5760 5759 5758 5757 5755 5754 5752 5751 5750 5749 5747 5746 5744 5743 5741 5739 5737 5735 5733 5730 5728
5820 5818 5816 5814 5811 5809 5807 5807 5799 5796 5794 5791 5788 5785 5783 5780 5778 5775 5773 5771 5769 5767 5765 5763 5762 5761 5760 5758 5757 5756 5754 5753 5751 5749 5748 5746 5745 5743 5742 5740 5739 5737 5735 5733 5731 5729 5726 5723 5721